[[{"header":{"parameterUnit":"m.s-1","parameterCategory":1,"la1":30.2991,"la2":30.254,"lo1":-89.0895,"lo2":-89.0444,"dy":0.0017,"dx":0.0017,"nx":28,"ny":28,"refTime":"2023-08-15T09:00:00:Z","depth":0,"parameterNumber":2,"parameterNumberName":"U-component_of_WINDS"},"data":[0,0,0,0,0,0,0,0,0,0,0,0,0,0,0,0,0,0,0,0,0,0,0,0,0,0,0,0,0,0,0,0,0,0,0,0,0,0,0,0,0,0,0,0,0,0,0,0,0,0,0,0,0,0,0,0,0,0,0.1232,0.1233,0,0.1356,0.1358,0.1359,0.1401,0.14,0.14,0.1399,0.153,0.1534,0.1538,0,0,0,0,0,0,0,0,0,0,0,0,0,0.1037,0.104,0.1232,0.1233,0.1235,0.1356,0.1358,0.1359,0.1401,0.14,0.14,0.1399,0.1529,0.1533,0.1538,0,0,0,0,0,0,0,0,0,0,0,0,0,0.1138,0.1041,0.1232,0.127,0.1275,0.1356,0.1358,0.136,0.1401,0.14,0.14,0.1399,0.1527,0.1533,0.1539,0.1591,0,0,0.1557,0.1559,0,0,0,0,0,0,0,0,0.1132,0.1145,0.1263,0.1268,0.1273,0.1362,0.1337,0.1437,0.1401,0.1353,0.1399,0.1399,0.1475,0.1485,0.151,0.1597,0.1602,0.1557,0.1561,0.1563,0.1565,0,0,0,0,0,0,0,0.1125,0.114,0.1281,0.1265,0.1271,0.1284,0.1297,0.1356,0.1417,0.1358,0.1361,0.1375,0.1478,0.1504,0.1514,0.1604,0.1557,0.1562,0.1566,0.1568,0.1746,0.1747,0,0,0,0,0,0,0.1111,0.1133,0.1277,0.1285,0.1199,0.1288,0.1303,0.1334,0.1417,0.1428,0.1375,0.1376,0.1495,0.1507,0.1518,0.1588,0.1563,0.1569,0.1572,0.1744,0.1746,0.1747,0,0,0,0,0,0,0.1106,0.1123,0.1272,0.121,0.123,0.1292,0.1327,0.1337,0.1364,0.143,0.1442,0.1391,0.1494,0.151,0.1573,0.1593,0.1572,0.1577,0.1743,0.1745,0.1746,0.1726,0,0,0,0,0,0,0.11,0.1121,0.114,0.121,0.1233,0.1323,0.1328,0.134,0.1374,0.1376,0.1448,0.1459,0.1495,0.1564,0.1579,0.1601,0.1582,0.1742,0.1744,0.1746,0.1725,0.1727,0.1728,0,0,0,0,0,0.1093,0.1129,0.114,0.1158,0.1258,0.1324,0.1337,0.1377,0.1375,0.1396,0.1439,0.1457,0.1588,0.157,0.1588,0.1611,0.1741,0.1743,0.1746,0.1725,0.1726,0.1728,0,0,0,0,0,0,0.1059,0.1138,0.1152,0.1211,0.1261,0.1331,0.1358,0.1377,0.1429,0.1429,0.1478,0.1494,0.1554,0.1589,0.1568,0.1669,0.1666,0.1672,0.1644,0.1646,0.1648,0.1639,0.1587,0,0,0,0,0,0.1058,0.1104,0.1172,0.1217,0.1241,0.1295,0.1326,0.1352,0.1406,0.1427,0.1475,0.1527,0.1581,0.1615,0.1668,0.173,0.1749,0.1756,0.1757,0.1758,0.1763,0.1804,0.1809,0.1756,0.1756,0.1755,0,0,0.1057,0.1106,0.1132,0.1212,0.1253,0.1302,0.1312,0.1362,0.14,0.1435,0.1499,0.1536,0.1598,0.1662,0.1693,0.1693,0.1782,0.1761,0.1761,0.1767,0.1807,0.1812,0.1816,0.1757,0.1757,0.1757,0,0,0.1081,0.1121,0.1165,0.1207,0.127,0.1306,0.1317,0.1385,0.1412,0.1476,0.1504,0.1551,0.1641,0.1686,0.172,0.1765,0.1785,0.1781,0.1789,0.1828,0.1832,0.1836,0.1856,0.1862,0.1786,0.1785,0.1785,0,0.1072,0.1145,0.1186,0.1236,0.1271,0.1306,0.1353,0.1392,0.1469,0.1494,0.1493,0.161,0.1654,0.1731,0.1743,0.1768,0.1785,0.1773,0.1828,0.1832,0.1837,0.1856,0.1863,0.1785,0.1785,0.1785,0.1785,0,0.1133,0.1183,0.1212,0.1286,0.1325,0.1373,0.1424,0.1459,0.1483,0.1521,0.1589,0.1643,0.1709,0.1729,0.1753,0.1812,0.1811,0.1818,0.1816,0.1841,0.186,0.1867,0.1784,0.1784,0.1784,0.1784,0,0,0.1136,0.1234,0.1244,0.128,0.1354,0.1395,0.1447,0.1511,0.1542,0.1595,0.1642,0.172,0.1729,0.1768,0.1798,0.1831,0.1869,0.1836,0.1838,0.1843,0.1942,0.1938,0.1945,0.1882,0.1883,0.1885,0.1938,0,0.1171,0.1263,0.1303,0.1378,0.1428,0.1463,0.1509,0.1561,0.1598,0.1648,0.169,0.1745,0.175,0.1775,0.181,0.1856,0.189,0.1853,0.193,0.1932,0.1915,0.1955,0.1949,0.1997,0.1945,0.1947,0.1948,0,0.1223,0.1277,0.1357,0.1429,0.1451,0.1491,0.1556,0.1602,0.1663,0.1689,0.1734,0.1763,0.1823,0.1816,0.1901,0.1875,0.1909,0.1937,0.194,0.1951,0.1942,0.1969,0.2012,0.2021,0.1959,0.1958,0.1957,0,0.1221,0.1314,0.1375,0.1404,0.1488,0.1517,0.1553,0.1614,0.1652,0.1709,0.1735,0.1799,0.1835,0.1885,0.1932,0.1922,0.2014,0.201,0.204,0.2039,0.2058,0.2057,0.2111,0.2076,0.2076,0.2076,0.2075,0,0.1257,0.1305,0.1376,0.1413,0.147,0.1518,0.1573,0.1613,0.1667,0.1716,0.175,0.1796,0.1854,0.1908,0.1945,0.2012,0.2027,0.2052,0.2062,0.205,0.2048,0.2075,0.2074,0.2078,0.2077,0.2077,0.2076,0,0.1264,0.1313,0.1382,0.1458,0.1478,0.1517,0.1583,0.1623,0.1663,0.1724,0.1741,0.1805,0.1871,0.1923,0.2008,0.2034,0.2106,0.2115,0.2085,0.209,0.2118,0.2116,0.2194,0.2208,0.216,0.2161,0.2161,0,0.1284,0.1323,0.1403,0.1438,0.1474,0.1529,0.1569,0.1619,0.1659,0.1735,0.1766,0.1834,0.1892,0.1996,0.2051,0.2118,0.2132,0.2154,0.2142,0.2131,0.2137,0.2135,0.2141,0.2156,0.2156,0.2156,0.2157,0,0.1316,0.134,0.1394,0.1459,0.1506,0.1559,0.1614,0.1641,0.1701,0.1746,0.1813,0.1858,0.1947,0.2016,0.2089,0.213,0.2156,0.216,0.2171,0.2161,0.2144,0.2158,0.2092,0.2158,0.2158,0.2158,0.2158,0.2158,0.1333,0.1371,0.1434,0.1496,0.1542,0.1593,0.1636,0.1683,0.1739,0.1815,0.1842,0.1913,0.1979,0.208,0.2122,0.2181,0.2182,0.2197,0.2202,0.2205,0.2206,0.2132,0.2194,0.2194,0.2194,0.2194,0.2194,0,0.137,0.1413,0.1469,0.1545,0.1595,0.1613,0.1676,0.1717,0.1779,0.1837,0.1894,0.1974,0.2043,0.2105,0.2177,0.2213,0.2227,0.223,0.223,0.224,0.2198,0.2183,0.2218,0.2218,0.2218,0.2218,0.2218,0.2218,0.1395,0.146,0.1492,0.1583,0.1627,0.1696,0.1731,0.1781,0.1828,0.1916,0.1973,0.2013,0.2076,0.2153,0.2219,0.2236,0.2262,0.2264,0.2284,0.2245,0.2242,0.2239,0.2225,0.2268,0.2269,0.2322,0.2322,0.2322]},{"header":{"parameterUnit":"m.s-1","parameterCategory":1,"la1":30.2991,"la2":30.254,"lo1":-89.0895,"lo2":-89.0444,"dy":0.0017,"dx":0.0017,"nx":28,"ny":28,"refTime":"2023-08-15T09:00:00:Z","depth":0,"parameterNumber":3,"parameterNumberName":"V-component_of_WINDS"},"data":[0,0,0,0,0,0,0,0,0,0,0,0,0,0,0,0,0,0,0,0,0,0,0,0,0,0,0,0,0,0,0,0,0,0,0,0,0,0,0,0,0,0,0,0,0,0,0,0,0,0,0,0,0,0,0,0,0,0,-4.4462,-4.446,0,-4.428,-4.4278,-4.4276,-4.4167,-4.4167,-4.4166,-4.4166,-4.3969,-4.3964,-4.3959,0,0,0,0,0,0,0,0,0,0,0,0,0,-4.4706,-4.4702,-4.4463,-4.446,-4.4458,-4.428,-4.4278,-4.4275,-4.4167,-4.4167,-4.4166,-4.4166,-4.397,-4.3965,-4.3959,0,0,0,0,0,0,0,0,0,0,0,0,0,-4.4569,-4.4701,-4.4463,-4.4383,-4.4374,-4.4281,-4.4277,-4.4274,-4.4167,-4.4167,-4.4166,-4.4165,-4.3972,-4.3965,-4.3958,-4.3927,0,0,-4.3936,-4.3933,0,0,0,0,0,0,0,0,-4.4577,-4.456,-4.4397,-4.4388,-4.4378,-4.4246,-4.4291,-4.4158,-4.4168,-4.4246,-4.4166,-4.4165,-4.4061,-4.4046,-4.4013,-4.3918,-4.3909,-4.3935,-4.3931,-4.3928,-4.3926,0,0,0,0,0,0,0,-4.4587,-4.4567,-4.439,-4.4395,-4.4383,-4.4352,-4.4332,-4.4265,-4.4159,-4.4239,-4.423,-4.4211,-4.4055,-4.4021,-4.4008,-4.3906,-4.3936,-4.3929,-4.3925,-4.3922,-4.377,-4.377,0,0,0,0,0,0,-4.461,-4.4576,-4.4396,-4.4384,-4.4478,-4.4348,-4.4326,-4.4289,-4.4159,-4.4139,-4.4212,-4.4206,-4.4033,-4.4016,-4.4,-4.3952,-4.3928,-4.3921,-4.3917,-4.377,-4.377,-4.377,0,0,0,0,0,0,-4.4616,-4.4595,-4.4403,-4.4478,-4.4451,-4.4345,-4.4304,-4.4286,-4.4251,-4.4139,-4.4118,-4.4196,-4.4032,-4.4011,-4.3945,-4.3944,-4.3918,-4.3911,-4.3769,-4.377,-4.377,-4.3858,0,0,0,0,0,0,-4.4623,-4.4598,-4.4589,-4.4479,-4.4448,-4.4356,-4.4304,-4.4282,-4.4239,-4.4231,-4.4119,-4.41,-4.403,-4.3957,-4.3938,-4.3933,-4.3906,-4.3769,-4.3769,-4.377,-4.3854,-4.3861,-4.3867,0,0,0,0,0,-4.4633,-4.4619,-4.4589,-4.4567,-4.4434,-4.4356,-4.4337,-4.426,-4.424,-4.4227,-4.4154,-4.4103,-4.3947,-4.3951,-4.3929,-4.3922,-4.3769,-4.3769,-4.377,-4.3852,-4.386,-4.3866,0,0,0,0,0,0,-4.4729,-4.4604,-4.4568,-4.452,-4.445,-4.4338,-4.4319,-4.4272,-4.4203,-4.4198,-4.4101,-4.4077,-4.402,-4.3964,-4.3971,-4.3882,-4.3852,-4.3848,-4.3921,-4.3928,-4.3934,-4.3948,-4.39,0,0,0,0,0,-4.4746,-4.4696,-4.4587,-4.4555,-4.4522,-4.4427,-4.439,-4.4336,-4.4258,-4.4227,-4.415,-4.4073,-4.4006,-4.3964,-4.3896,-4.3845,-4.3817,-4.3829,-4.3835,-4.3841,-4.3838,-4.3802,-4.3806,-4.3773,-4.3773,-4.3773,0,0,-4.4777,-4.4703,-4.4677,-4.4572,-4.4512,-4.4458,-4.4403,-4.435,-4.4307,-4.4218,-4.4152,-4.4092,-4.3999,-4.394,-4.391,-4.3892,-4.3841,-4.3842,-4.3847,-4.3841,-4.3804,-4.3807,-4.381,-4.3773,-4.3773,-4.3773,0,0,-4.4808,-4.4749,-4.4713,-4.4653,-4.4563,-4.4499,-4.4491,-4.4385,-4.4343,-4.4276,-4.4206,-4.4152,-4.404,-4.3976,-4.3929,-4.3931,-4.3879,-4.3911,-4.3943,-4.3909,-4.3911,-4.3913,-4.3911,-4.3911,-4.3909,-4.3909,-4.3909,0,-4.4859,-4.478,-4.47,-4.4651,-4.4604,-4.4523,-4.4483,-4.4428,-4.4319,-4.4286,-4.4268,-4.4123,-4.4055,-4.3978,-4.3978,-4.3944,-4.3927,-4.3923,-4.3918,-4.3919,-4.3919,-4.3916,-4.3915,-4.3914,-4.3913,-4.3913,-4.3912,0,-4.4844,-4.479,-4.4771,-4.467,-4.4622,-4.4577,-4.4487,-4.4447,-4.4396,-4.4333,-4.4262,-4.4177,-4.409,-4.4067,-4.4017,-4.3981,-4.3972,-4.3938,-4.3905,-4.3928,-4.3923,-4.3921,-4.392,-4.3918,-4.3917,-4.3916,0,0,-4.4932,-4.4786,-4.4781,-4.4732,-4.4624,-4.4578,-4.4528,-4.4444,-4.441,-4.4336,-4.4288,-4.4193,-4.416,-4.4106,-4.4047,-4.4017,-4.402,-4.3985,-4.3981,-4.3992,-4.397,-4.3996,-4.3996,-4.3985,-4.3985,-4.3984,-4.3977,0,-4.4945,-4.4855,-4.478,-4.4716,-4.4661,-4.4581,-4.4536,-4.4463,-4.4401,-4.4343,-4.4273,-4.4207,-4.4169,-4.4135,-4.4103,-4.4027,-4.4014,-4.4026,-4.3935,-4.3933,-4.396,-4.3994,-4.4021,-4.4019,-4.3975,-4.3974,-4.3974,0,-4.4949,-4.488,-4.4812,-4.4706,-4.468,-4.4642,-4.4557,-4.4504,-4.4416,-4.4373,-4.4312,-4.425,-4.4188,-4.4162,-4.4072,-4.4082,-4.4039,-4.3996,-4.3994,-4.3981,-4.3955,-4.3979,-4.4016,-4.4015,-4.397,-4.3971,-4.3971,0,-4.5017,-4.4907,-4.485,-4.4811,-4.4687,-4.4662,-4.4608,-4.452,-4.4474,-4.4398,-4.4365,-4.4283,-4.4237,-4.4172,-4.4087,-4.4077,-4.4004,-4.3972,-4.3963,-4.3965,-4.3951,-4.3952,-4.3979,-4.3927,-4.3927,-4.3927,-4.3927,0,-4.5038,-4.4998,-4.4878,-4.4844,-4.4794,-4.4707,-4.4659,-4.4598,-4.452,-4.4468,-4.4392,-4.4344,-4.4236,-4.4174,-4.4106,-4.404,-4.402,-4.398,-4.3962,-4.3986,-4.3991,-4.3956,-4.3953,-4.3927,-4.3927,-4.3927,-4.3927,0,-4.5105,-4.5024,-4.4957,-4.4845,-4.4816,-4.4784,-4.4686,-4.4646,-4.458,-4.4515,-4.4494,-4.4389,-4.4311,-4.422,-4.4112,-4.4066,-4.4004,-4.3979,-4.4035,-4.4024,-4.4019,-4.402,-4.4023,-4.4017,-4.3972,-4.3973,-4.3973,0,-4.5124,-4.5091,-4.4976,-4.4938,-4.4887,-4.4826,-4.4778,-4.4688,-4.464,-4.4536,-4.4508,-4.4425,-4.4354,-4.4231,-4.4142,-4.4058,-4.4029,-4.4035,-4.4015,-4.4039,-4.4025,-4.4028,-4.4022,-4.4041,-4.4042,-4.4043,-4.4043,0,-4.5164,-4.5125,-4.5061,-4.4982,-4.4927,-4.486,-4.4788,-4.476,-4.4654,-4.4604,-4.4525,-4.447,-4.4359,-4.4275,-4.4179,-4.4118,-4.4062,-4.4051,-4.4043,-4.4066,-4.4099,-4.4078,-4.4048,-4.4051,-4.405,-4.4049,-4.4049,-4.4049,-4.5205,-4.5171,-4.5084,-4.5014,-4.4951,-4.4886,-4.4843,-4.4771,-4.4705,-4.461,-4.456,-4.448,-4.4388,-4.4254,-4.4195,-4.4128,-4.4109,-4.4099,-4.4096,-4.4095,-4.41,-4.4111,-4.411,-4.411,-4.4109,-4.4109,-4.4109,0,-4.5239,-4.5179,-4.5115,-4.5019,-4.4962,-4.4917,-4.4835,-4.4789,-4.4722,-4.4643,-4.4574,-4.448,-4.4398,-4.4302,-4.4213,-4.4177,-4.4149,-4.4156,-4.4157,-4.4143,-4.4124,-4.4138,-4.4181,-4.4181,-4.4181,-4.4181,-4.4181,-4.4181,-4.525,-4.5189,-4.5139,-4.5044,-4.4983,-4.4907,-4.4864,-4.4801,-4.4737,-4.4637,-4.457,-4.4509,-4.4421,-4.4324,-4.4244,-4.4218,-4.4187,-4.4202,-4.4168,-4.4151,-4.4145,-4.4139,-4.4152,-4.4197,-4.4197,-4.4192,-4.4192,-4.4192]}]]